KE0FIN Weather Reports


Display with metric or nautical units.
time (UTC)temp
F
wind
direction
speed
MPH
gust
MPH
rain 1hr
in
rain 24hr
in
rain mn
in
humidity
%
barometer
mb
20260507144332 57 245 2.0 4.0 0.00 0.00 0.00 63 1068.5
20260507143828 57 147 2.0 7.0 0.00 0.00 0.00 63 1068.7
20260507143325 57 268 3.0 6.0 0.00 0.00 0.00 64 1068.5
20260507142821 56 120 1.0 6.0 0.00 0.00 0.00 66 1068.6
20260507142318 55 165 2.0 4.0 0.00 0.00 0.00 66 1068.7
20260507141814 55 250 4.0 8.0 0.00 0.00 0.00 67 1068.6
20260507141312 54 287 4.0 6.0 0.00 0.00 0.00 70 1068.6
20260507140808 54 87 2.0 4.0 0.00 0.00 0.00 74 1068.8
20260507140305 53 189 1.0 3.0 0.00 0.00 0.00 76 1068.9
20260507135803 53 137 1.0 2.0 0.00 0.00 0.00 77 1069.0
20260507135300 52 135 0.0 3.0 0.00 0.00 0.00 78 1069.2
20260507134756 51 179 2.0 3.0 0.00 0.00 0.00 78 1068.8
20260507134252 51 110 4.0 6.0 0.00 0.00 0.00 79 1069.2
20260507133748 50 138 3.0 4.0 0.00 0.00 0.00 81 1068.9
20260507133245 50 168 2.0 3.0 0.00 0.00 0.00 81 1069.0
20260507132742 49 119 0.0 7.0 0.00 0.00 0.00 82 1069.0
20260507132239 49 67 2.0 3.0 0.00 0.00 0.00 83 1069.2
20260507131735 48 273 3.0 6.0 0.00 0.00 0.00 84 1069.0
20260507131233 47 189 1.0 3.0 0.00 0.00 0.00 86 1069.0
20260507130729 47 167 2.0 2.0 0.00 0.00 0.00 88 1069.4
20260507130227 46 218 1.0 1.0 0.00 0.00 0.00 89 1069.4
20260507125726 46 133 0.0 2.0 0.00 0.00 0.00 89 1069.3
20260507125223 45 137 0.0 2.0 0.00 0.00 0.00 90 1069.2
20260507124720 44 103 1.0 2.0 0.00 0.00 0.00 90 1069.3
20260507124217 44 110 1.0 3.0 0.00 0.00 0.00 91 1069.3
20260507123715 44 150 0.0 1.0 0.00 0.00 0.00 91 1068.8
20260507123212 43 143 0.0 1.0 0.00 0.00 0.00 92 1069.0
20260507122708 43 143 0.0 1.0 0.00 0.00 0.00 92 1069.3
20260507122203 42 167 2.0 2.0 0.00 0.00 0.00 93 1069.0
20260507121659 42 142 0.0 0.0 0.00 0.00 0.00 93 1069.2
20260507121155 42 143 1.0 1.0 0.00 0.00 0.00 94 1069.2
20260507120651 42 141 0.0 0.0 0.00 0.00 0.00 94 1068.9
20260507120148 42 140 0.0 0.0 0.00 0.00 0.00 94 1069.0
20260507115644 41 141 0.0 0.0 0.00 0.00 0.00 94 1069.2
20260507115140 41 143 0.0 0.0 0.00 0.00 0.00 94 1068.9
20260507114636 41 137 0.0 0.0 0.00 0.00 0.00 94 1068.8
20260507114134 41 139 0.0 0.0 0.00 0.00 0.00 94 1068.8
20260507113631 41 139 0.0 0.0 0.00 0.00 0.00 94 1068.9
20260507113127 41 130 0.0 0.0 0.00 0.00 0.00 94 1069.3
20260507112626 41 130 0.0 0.0 0.00 0.00 0.00 94 1068.9
20260507112122 41 139 0.0 0.0 0.00 0.00 0.00 94 1069.2
20260507111619 41 139 0.0 0.0 0.00 0.00 0.00 94 1068.9
20260507111116 41 135 0.0 0.0 0.00 0.00 0.00 94 1068.8
20260507110612 41 135 0.0 0.0 0.00 0.00 0.00 94 1069.2
20260507110109 41 137 0.0 0.0 0.00 0.00 0.00 93 1069.0
20260507105606 41 137 0.0 0.0 0.00 0.00 0.00 93 1068.9
20260507105102 41 143 0.0 0.0 0.00 0.00 0.00 93 1069.0
20260507104600 42 143 0.0 0.0 0.00 0.00 0.00 93 1068.9
20260507104055 42 143 0.0 0.0 0.00 0.00 0.00 93 1068.8
20260507103552 41 143 0.0 0.0 0.00 0.00 0.00 92 1068.8
20260507103049 42 145 0.0 0.0 0.00 0.00 0.00 92 1068.8
20260507102545 42 141 0.0 0.0 0.00 0.00 0.00 91 1068.8
20260507102041 42 141 0.0 0.0 0.00 0.00 0.00 91 1068.8
20260507101537 42 141 0.0 0.0 0.00 0.00 0.00 90 1069.0
20260507101033 42 150 0.0 0.0 0.00 0.00 0.00 90 1069.0
20260507100531 43 150 0.0 0.0 0.00 0.00 0.00 90 1069.0
20260507100029 43 150 0.0 0.0 0.00 0.00 0.00 89 1069.0
20260507095527 43 141 0.0 0.0 0.00 0.00 0.00 88 1069.2
20260507095023 44 142 0.0 0.0 0.00 0.00 0.00 88 1069.4
20260507094520 44 142 0.0 0.0 0.00 0.00 0.00 87 1069.3
20260507094017 44 142 0.0 0.0 0.00 0.00 0.00 87 1069.3
20260507093514 44 145 0.0 0.0 0.00 0.00 0.00 87 1069.5
20260507093013 45 145 0.0 0.0 0.00 0.00 0.00 86 1069.4
20260507092508 45 159 0.0 0.0 0.00 0.00 0.00 86 1069.4
20260507092006 45 159 0.0 0.0 0.00 0.00 0.00 85 1069.6
20260507091502 45 141 0.0 0.0 0.00 0.00 0.00 84 1069.5
20260507090958 46 145 0.0 0.0 0.00 0.00 0.00 83 1069.7
20260507090454 46 145 0.0 0.0 0.00 0.00 0.00 83 1069.7
20260507085951 46 146 0.0 0.0 0.00 0.00 0.00 82 1069.6
20260507085448 46 146 0.0 0.0 0.00 0.00 0.00 82 1069.6
20260507084944 47 146 0.0 1.0 0.00 0.00 0.00 81 1069.8
20260507084441 47 135 0.0 0.0 0.00 0.00 0.00 81 1069.6
20260507083938 47 144 0.0 1.0 0.00 0.00 0.00 81 1069.7
20260507083434 47 132 1.0 3.0 0.00 0.00 0.00 81 1069.8
20260507082931 47 135 0.0 0.0 0.00 0.00 0.00 81 1069.8
20260507082427 47 123 0.0 0.0 0.00 0.00 0.00 81 1070.0
20260507081924 47 137 0.0 0.0 0.00 0.00 0.00 80 1069.9
20260507081420 47 130 0.0 0.0 0.00 0.00 0.00 80 1069.8
20260507080917 47 121 0.0 0.0 0.00 0.00 0.00 80 1069.9
20260507080414 47 121 0.0 0.0 0.00 0.00 0.00 79 1069.9
20260507075908 48 121 0.0 0.0 0.00 0.00 0.00 78 1069.9
20260507075405 48 138 0.0 0.0 0.00 0.00 0.00 78 1069.8
20260507074901 48 139 0.0 0.0 0.00 0.00 0.00 77 1069.9
20260507074358 48 130 0.0 0.0 0.00 0.00 0.00 76 1070.0
20260507073856 49 121 0.0 0.0 0.00 0.00 0.00 77 1070.0
20260507073352 49 140 0.0 0.0 0.00 0.00 0.00 77 1070.1
20260507072849 49 140 0.0 0.0 0.00 0.00 0.00 76 1069.9
20260507072347 49 140 0.0 0.0 0.00 0.00 0.00 76 1069.9
20260507071844 49 121 0.0 0.0 0.00 0.00 0.00 76 1070.0
20260507071341 48 135 0.0 0.0 0.00 0.00 0.00 76 1070.1
20260507070837 49 135 0.0 0.0 0.00 0.00 0.00 75 1070.2
20260507070335 49 138 0.0 0.0 0.00 0.00 0.00 75 1070.3
20260507065831 49 135 0.0 0.0 0.00 0.00 0.00 75 1070.3
20260507065328 49 135 0.0 0.0 0.00 0.00 0.00 75 1070.4
20260507064825 49 135 0.0 0.0 0.00 0.00 0.00 75 1070.3
20260507064324 49 138 0.0 0.0 0.00 0.00 0.00 75 1070.8
20260507063821 49 135 0.0 0.0 0.00 0.00 0.00 75 1070.6
20260507063318 49 121 0.0 0.0 0.00 0.00 0.00 75 1070.7
20260507062815 49 135 0.0 0.0 0.00 0.00 0.00 74 1070.4
20260507062312 48 136 0.0 0.0 0.00 0.00 0.00 74 1070.4
20260507061810 48 128 0.0 0.0 0.00 0.00 0.00 76 1070.4
20260507061308 48 127 0.0 0.0 0.00 0.00 0.00 78 1070.4
20260507060806 48 127 0.0 0.0 0.00 0.00 0.00 77 1070.5
20260507060302 48 127 0.0 0.0 0.00 0.00 0.00 76 1070.5
20260507055758 49 127 0.0 0.0 0.00 0.00 0.00 75 1070.5
20260507055254 49 127 0.0 0.0 0.00 0.00 0.00 74 1070.5
20260507054750 49 127 0.0 0.0 0.00 0.00 0.00 73 1070.4
20260507054247 49 127 0.0 0.0 0.00 0.00 0.00 75 1070.2
20260507053744 49 127 0.0 0.0 0.00 0.00 0.00 75 1070.2
20260507053242 49 127 0.0 0.0 0.00 0.00 0.00 74 1070.6
20260507052741 49 127 0.0 0.0 0.00 0.00 0.00 74 1070.4
20260507052237 49 127 0.0 0.0 0.00 0.00 0.00 74 1070.4
20260507051735 49 127 0.0 0.0 0.00 0.00 0.00 74 1070.5
20260507051231 49 127 0.0 0.0 0.00 0.00 0.00 75 1070.4
20260507050728 49 127 0.0 0.0 0.00 0.00 0.00 74 1070.4
20260507050225 49 127 0.0 0.0 0.00 0.00 0.00 74 1070.5
20260507045722 49 127 0.0 0.0 0.00 0.10 0.10 73 1070.6
20260507045218 49 148 0.0 0.0 0.00 0.10 0.10 73 1070.6
20260507044716 49 129 0.0 0.0 0.00 0.10 0.10 76 1070.5
20260507044212 49 136 0.0 0.0 0.00 0.10 0.10 77 1070.6
20260507043709 48 119 0.0 0.0 0.00 0.10 0.10 78 1070.5
20260507043205 48 119 0.0 0.0 0.00 0.10 0.10 78 1070.3
20260507042702 48 119 0.0 0.0 0.00 0.10 0.10 78 1070.4
20260507042156 48 119 0.0 0.0 0.00 0.10 0.10 77 1070.4
20260507041654 48 119 0.0 0.0 0.00 0.10 0.10 78 1070.1
20260507041150 48 119 0.0 0.0 0.00 0.10 0.10 77 1070.4
20260507040647 48 119 0.0 0.0 0.00 0.10 0.10 77 1070.2
20260507040144 48 119 0.0 0.0 0.00 0.10 0.10 77 1070.3
20260507035639 48 119 0.0 0.0 0.00 0.10 0.10 76 1070.3
20260507035135 48 119 0.0 0.0 0.00 0.10 0.10 78 1070.5
20260507034633 47 119 0.0 0.0 0.00 0.10 0.10 76 1070.6
20260507034130 48 119 0.0 0.0 0.00 0.10 0.10 75 1070.6
20260507033629 48 119 0.0 0.0 0.00 0.10 0.10 75 1070.6
20260507033125 48 119 0.0 0.0 0.00 0.10 0.10 74 1070.5
20260507032623 48 119 0.0 0.0 0.00 0.10 0.10 73 1070.5
20260507032119 48 119 0.0 0.0 0.00 0.10 0.10 72 1070.5
20260507031615 49 119 0.0 0.0 0.00 0.10 0.10 70 1070.3
20260507031112 49 119 0.0 0.0 0.00 0.10 0.10 69 1070.4
20260507030608 50 119 0.0 0.0 0.00 0.10 0.10 67 1070.5
20260507030107 50 119 0.0 0.0 0.00 0.10 0.10 67 1070.5
20260507025603 50 119 0.0 0.0 0.00 0.10 0.10 64 1070.2
20260507025100 51 119 0.0 0.0 0.00 0.10 0.10 62 1070.4
20260507024559 51 119 0.0 0.0 0.00 0.10 0.10 61 1070.3
20260507024055 52 119 0.0 0.0 0.00 0.10 0.10 59 1070.3
20260507023551 53 119 0.0 0.0 0.00 0.10 0.10 58 1070.1
20260507023049 53 119 0.0 0.0 0.00 0.10 0.10 58 1070.0
20260507022545 54 119 0.0 0.0 0.00 0.10 0.10 56 1070.2
20260507022040 54 119 0.0 0.0 0.00 0.10 0.10 55 1070.1
20260507021537 55 118 0.0 0.0 0.00 0.10 0.10 53 1070.2
20260507021033 55 118 0.0 0.0 0.00 0.10 0.10 52 1070.1
20260507020531 55 115 0.0 0.0 0.00 0.10 0.10 52 1070.0
20260507020027 55 113 0.0 1.0 0.00 0.10 0.10 52 1070.0
20260507015526 55 108 0.0 0.0 0.00 0.10 0.10 52 1069.8
20260507015023 55 124 0.0 0.0 0.00 0.10 0.10 50 1069.8
20260507014519 56 128 0.0 0.0 0.00 0.10 0.10 50 1069.7
20260507014015 56 118 0.0 0.0 0.00 0.10 0.10 49 1069.7
20260507013512 56 119 0.0 0.0 0.00 0.10 0.10 50 1069.6
20260507013009 56 113 0.0 2.0 0.00 0.10 0.10 48 1069.4
20260507012506 56 118 0.0 1.0 0.00 0.10 0.10 48 1069.4
20260507012003 56 119 0.0 2.0 0.00 0.10 0.10 48 1069.3
20260507011500 57 122 0.0 1.0 0.00 0.10 0.10 48 1069.4
20260507010955 57 109 0.0 2.0 0.00 0.10 0.10 46 1069.4
20260507010450 57 110 1.0 3.0 0.00 0.10 0.10 45 1069.4
20260507005947 57 116 0.0 1.0 0.00 0.10 0.10 45 1069.3
20260507005445 57 120 0.0 2.0 0.00 0.10 0.10 45 1069.3
20260507004941 57 126 0.0 2.0 0.00 0.10 0.10 45 1069.2
20260507004438 58 119 0.0 2.0 0.00 0.10 0.10 46 1069.3
20260507003936 58 104 1.0 2.0 0.00 0.10 0.10 45 1069.2
20260507003430 58 122 0.0 1.0 0.00 0.10 0.10 47 1069.0
20260507002926 58 120 0.0 1.0 0.00 0.10 0.10 45 1069.0
20260507002422 58 118 0.0 3.0 0.00 0.10 0.10 46 1069.0
20260507001919 59 137 0.0 2.0 0.00 0.10 0.10 45 1068.9
20260507001416 59 125 0.0 1.0 0.00 0.10 0.10 47 1069.3
20260507000914 59 128 0.0 1.0 0.00 0.10 0.10 45 1069.2
20260507000408 59 119 0.0 2.0 0.00 0.10 0.10 46 1069.3
20260506235905 59 100 0.0 1.0 0.00 0.10 0.10 47 1069.0
20260506235402 59 83 1.0 3.0 0.00 0.10 0.10 46 1068.9
20260506234858 59 122 0.0 2.0 0.00 0.10 0.10 45 1069.2
20260506234356 59 122 0.0 1.0 0.00 0.10 0.10 46 1069.0
20260506233853 60 124 1.0 1.0 0.00 0.10 0.10 45 1068.9
20260506233349 60 127 0.0 0.0 0.00 0.10 0.10 47 1068.8
20260506232846 60 91 3.0 3.0 0.00 0.10 0.10 44 1069.2
20260506232342 60 134 0.0 2.0 0.00 0.10 0.10 45 1068.9
20260506231838 60 122 0.0 2.0 0.00 0.10 0.10 45 1069.0
20260506231336 60 120 0.0 1.0 0.00 0.10 0.10 44 1068.9
20260506230833 60 131 0.0 0.0 0.00 0.10 0.10 45 1068.9
20260506230330 59 133 0.0 2.0 0.00 0.10 0.10 45 1069.0
20260506225826 60 119 1.0 2.0 0.00 0.10 0.10 45 1069.3
20260506225324 60 118 1.0 1.0 0.00 0.10 0.10 46 1069.3
20260506224820 61 103 2.0 3.0 0.00 0.10 0.10 45 1069.0
20260506224318 63 147 0.0 1.0 0.00 0.10 0.10 42 1068.9
20260506223814 63 122 1.0 2.0 0.00 0.10 0.10 43 1068.7
20260506223309 62 116 0.0 4.0 0.00 0.10 0.10 44 1068.8
20260506222807 61 42 2.0 6.0 0.00 0.10 0.10 45 1068.7
20260506222305 60 126 0.0 2.0 0.00 0.10 0.10 47 1068.9
20260506221800 60 129 1.0 4.0 0.00 0.10 0.10 46 1068.8
20260506221258 61 92 1.0 2.0 0.00 0.10 0.10 45 1069.0
20260506220755 60 129 0.0 3.0 0.00 0.10 0.10 46 1068.7
20260506220249 59 122 1.0 3.0 0.00 0.10 0.10 47 1068.9
20260506215747 59 123 1.0 3.0 0.00 0.10 0.10 49 1069.0
20260506215242 59 140 1.0 3.0 0.00 0.10 0.10 48 1068.9
20260506214739 59 149 0.0 3.0 0.00 0.10 0.10 47 1069.2
20260506214236 59 108 3.0 4.0 0.00 0.10 0.10 46 1069.3
20260506213734 59 84 1.0 3.0 0.00 0.10 0.10 47 1069.3
20260506213231 59 143 1.0 3.0 0.00 0.10 0.10 47 1069.0
20260506212729 59 121 0.0 2.0 0.00 0.10 0.10 48 1069.0
20260506212224 59 109 2.0 4.0 0.00 0.10 0.10 47 1069.4
20260506211719 59 120 2.0 4.0 0.00 0.10 0.10 46 1069.4
20260506211216 61 94 2.0 4.0 0.00 0.10 0.10 45 1069.4
20260506210713 62 123 1.0 3.0 0.00 0.10 0.10 42 1069.4
20260506210210 62 200 2.0 3.0 0.00 0.10 0.10 43 1069.4
20260506205707 63 120 1.0 4.0 0.00 0.10 0.10 43 1069.4
20260506205202 63 102 0.0 2.0 0.00 0.10 0.10 43 1069.6
20260506204659 62 126 1.0 4.0 0.00 0.10 0.10 43 1069.5
20260506204156 62 105 0.0 2.0 0.00 0.10 0.10 44 1069.4
20260506203654 63 95 1.0 2.0 0.00 0.10 0.10 40 1069.6
20260506203151 61 124 2.0 2.0 0.00 0.10 0.10 44 1069.7
20260506202650 62 122 1.0 1.0 0.00 0.10 0.10 42 1069.8
20260506202145 62 131 0.0 2.0 0.00 0.10 0.10 42 1069.9
20260506201642 62 87 2.0 2.0 0.00 0.10 0.10 40 1069.9
20260506201138 62 306 1.0 2.0 0.00 0.10 0.10 40 1070.1
20260506200635 62 63 2.0 4.0 0.00 0.10 0.10 42 1070.2
20260506200132 62 99 1.0 3.0 0.00 0.10 0.10 41 1070.1
20260506195629 62 246 1.0 3.0 0.00 0.10 0.10 41 1070.2
20260506195125 62 141 2.0 6.0 0.00 0.10 0.10 41 1070.3
20260506194623 61 98 0.0 1.0 0.00 0.10 0.10 43 1070.4
20260506194119 60 112 2.0 4.0 0.00 0.10 0.10 44 1070.4
20260506193617 61 148 1.0 2.0 0.00 0.10 0.10 43 1070.5
20260506193114 60 106 2.0 6.0 0.00 0.10 0.10 42 1070.4
20260506192611 60 124 0.0 3.0 0.00 0.10 0.10 44 1070.3
20260506192106 60 127 3.0 4.0 0.00 0.10 0.10 44 1070.4
20260506191603 60 189 1.0 4.0 0.00 0.10 0.10 44 1070.3
20260506191059 61 92 2.0 6.0 0.00 0.10 0.10 46 1070.2
20260506190557 60 132 0.0 2.0 0.00 0.10 0.10 44 1070.4
20260506190053 59 137 0.0 3.0 0.00 0.10 0.10 44 1070.2
20260506185551 58 143 1.0 3.0 0.00 0.10 0.10 45 1070.3
20260506185047 59 177 5.0 7.0 0.00 0.10 0.10 46 1070.3
20260506184544 59 71 2.0 4.0 0.00 0.10 0.10 46 1070.3
20260506184042 60 98 1.0 2.0 0.00 0.10 0.10 45 1070.5
20260506183537 59 127 2.0 3.0 0.00 0.10 0.10 51 1070.4
20260506183034 58 133 2.0 4.0 0.00 0.10 0.10 49 1070.8
20260506182532 59 358 3.0 3.0 0.00 0.10 0.10 50 1070.7
20260506182029 58 100 1.0 3.0 0.00 0.10 0.10 50 1070.7
20260506181527 58 126 2.0 6.0 0.00 0.10 0.10 49 1070.8
20260506181023 58 130 1.0 2.0 0.00 0.10 0.10 53 1071.0
20260506180520 57 92 2.0 3.0 0.00 0.10 0.10 50 1070.8
20260506180016 57 89 1.0 2.0 0.00 0.10 0.10 52 1071.1
20260506175513 56 118 1.0 3.0 0.00 0.10 0.10 51 1071.2
20260506175009 56 107 3.0 6.0 0.00 0.10 0.10 53 1071.3
20260506174508 55 110 0.0 3.0 0.00 0.10 0.10 55 1071.3
20260506174004 55 124 1.0 3.0 0.00 0.10 0.10 57 1071.3
20260506173502 54 173 2.0 3.0 0.00 0.10 0.10 55 1071.1
20260506172958 54 94 2.0 6.0 0.00 0.10 0.10 59 1071.3
20260506172456 55 123 0.0 3.0 0.00 0.10 0.10 57 1071.3
20260506171952 55 87 1.0 2.0 0.00 0.10 0.10 59 1071.3
20260506171449 54 78 2.0 3.0 0.00 0.10 0.10 64 1071.2
20260506170947 54 122 0.0 6.0 0.00 0.10 0.10 63 1071.1
20260506170444 53 115 1.0 3.0 0.00 0.10 0.10 67 1071.3
20260506165942 53 119 0.0 2.0 0.00 0.10 0.10 70 1071.2
20260506165440 53 113 1.0 6.0 0.00 0.10 0.10 69 1071.3
20260506164930 53 119 1.0 2.0 0.00 0.10 0.10 70 1071.3
20260506164427 52 128 0.0 1.0 0.00 0.10 0.10 73 1071.2
20260506163925 52 92 1.0 2.0 0.00 0.10 0.10 73 1071.2
20260506163420 51 75 1.0 4.0 0.00 0.10 0.10 73 1071.2
20260506162915 51 127 0.0 1.0 0.00 0.10 0.10 72 1071.3
20260506162413 51 128 0.0 3.0 0.00 0.10 0.10 76 1071.1
20260506161910 51 115 0.0 1.0 0.00 0.10 0.10 78 1071.2
20260506161408 50 96 0.0 1.0 0.00 0.10 0.10 78 1071.6
20260506160905 50 86 0.0 1.0 0.00 0.10 0.10 79 1071.7
20260506160401 50 126 0.0 1.0 0.00 0.10 0.10 78 1071.4
20260506155854 50 119 0.0 1.0 0.00 0.10 0.10 80 1071.6
20260506155350 49 100 2.0 2.0 0.00 0.10 0.10 80 1071.8
20260506153508 48 107 2.0 3.0 0.00 0.10 0.10 81 1071.7
20260506153005 48 136 0.0 1.0 0.00 0.10 0.10 82 1071.4
20260506152501 48 123 0.0 0.0 0.00 0.10 0.10 83 1071.3
20260506152000 48 95 2.0 3.0 0.00 0.10 0.10 82 1071.2
20260506151457 48 170 1.0 3.0 0.00 0.10 0.10 85 1071.1
20260506150954 48 117 0.0 1.0 0.00 0.10 0.10 85 1071.2
20260506150450 48 125 0.0 0.0 0.00 0.10 0.10 86 1071.3
20260506145948 48 139 0.0 1.0 0.00 0.10 0.10 86 1071.3
20260506145444 48 117 0.0 0.0 0.00 0.10 0.10 86 1071.6
20260506144942 48 119 0.0 2.0 0.00 0.10 0.10 86 1071.3
20260506144438 48 123 0.0 2.0 0.00 0.10 0.10 87 1070.9